EDT,Max TemperatureF,Mean TemperatureF,Min TemperatureF,Max Dew PointF,MeanDew PointF,Min DewpointF,Max Humidity, Mean Humidity, Min Humidity, Max Sea Level PressureIn, Mean Sea Level PressureIn, Min Sea Level PressureIn, Max VisibilityMiles, Mean VisibilityMiles, Min VisibilityMiles, Max Wind SpeedMPH, Mean Wind SpeedMPH, Max Gust SpeedMPH,PrecipitationIn, CloudCover, Events, WindDirDegrees
2013-4-1,64,53,42,49,43,33,100,68,36,30.07,29.96,29.89,10,5,0,20,7,28,0.00,4,Fog,257
2013-4-2,55,46,37,31,21,15,53,38,22,30.24,30.17,30.08,10,10,10,14,5,18,T,3,Rain,339
2013-4-3,56,46,35,22,20,16,52,38,24,30.27,30.22,30.18,10,10,10,18,10,23,0.00,5,,41
2013-4-4,49,45,41,42,36,18,96,63,29,30.17,30.07,29.99,10,6,1,14,6,17,0.85,8,Rain,36
2013-4-5,64,52,39,43,37,30,86,58,30,30.09,30.03,29.98,10,8,4,12,2,20,T,5,Rain,63
2013-4-6,72,55,37,40,36,32,92,60,28,30.19,30.11,30.04,10,10,10,15,5,18,0.00,3,,233
2013-4-7,74,61,48,45,40,33,61,41,22,30.14,30.07,30.03,10,10,10,23,9,30,0.00,5,,225
2013-4-8,77,63,49,52,48,42,80,59,38,30.09,30.03,29.99,10,10,9,25,9,35,0.00,3,,232
2013-4-9,82,67,52,55,51,48,83,61,39,30.15,30.08,30.01,10,10,10,23,6,28,0.00,3,,252
2013-4-10,84,70,55,60,55,51,80,59,37,30.09,29.99,29.86,10,10,10,16,6,20,0.00,1,,242
2013-4-11,82,72,61,63,58,52,93,66,39,29.87,29.75,29.62,10,7,1,33,11,45,1.05,7,Rain-Thunderstorm,215
2013-4-12,64,57,50,61,46,36,93,65,36,29.94,29.78,29.56,10,9,2,23,11,31,0.13,4,Rain,244
2013-4-13,70,57,43,42,38,35,83,56,28,30.06,30.01,29.94,10,10,10,13,4,16,0.00,2,,227
2013-4-14,69,56,43,51,44,39,89,63,37,30.04,29.98,29.92,10,10,10,15,3,21,0.02,6,Rain,60
2013-4-15,79,66,53,57,54,51,93,69,45,30.07,29.99,29.91,10,10,10,10,2,14,0.00,4,,240
2013-4-16,82,68,54,62,58,52,93,70,47,30.22,30.14,30.07,10,10,10,14,4,18,0.00,3,,237
2013-4-17,77,69,61,62,60,56,93,77,61,30.23,30.14,30.02,10,10,7,24,5,31,0.03,7,Rain,35
2013-4-18,82,70,57,62,56,51,97,66,34,30.04,29.95,29.79,10,10,5,25,11,37,0.00,5,,191
2013-4-19,75,60,45,63,53,32,93,72,50,30.09,29.80,29.64,10,6,1,32,15,41,1.41,8,Rain,242
2013-4-20,61,48,35,34,31,27,89,58,27,30.28,30.20,30.12,10,10,10,13,3,18,0.00,1,,308
2013-4-21,67,54,41,37,34,31,70,51,31,30.39,30.31,30.24,10,10,10,15,7,17,0.00,5,,43
2013-4-22,71,57,42,42,39,34,76,55,33,30.34,30.23,30.13,10,10,10,15,4,20,0.00,0,,28
2013-4-23,73,59,45,48,44,39,86,62,38,30.22,30.12,30.02,10,10,10,15,4,18,0.00,1,,232
2013-4-24,74,61,47,61,52,42,100,77,53,30.24,30.06,29.96,10,8,2,33,13,43,0.32,7,Rain-Thunderstorm,242
2013-4-25,65,53,41,43,37,31,86,59,31,30.35,30.29,30.24,10,10,10,14,4,16,0.00,3,,24
2013-4-26,68,53,38,44,38,34,92,61,29,30.41,30.36,30.29,10,10,9,14,5,17,0.00,5,,44
2013-4-27,59,55,51,54,52,44,100,81,62,30.34,30.24,30.11,10,6,1,12,4,14,1.09,8,Rain,51
2013-4-28,59,56,52,57,54,52,100,93,86,30.12,30.04,29.92,10,4,1,24,6,29,2.42,7,Rain-Thunderstorm,36
2013-4-29,73,63,53,56,54,50,100,74,47,30.04,29.99,29.92,10,7,1,12,4,15,0.00,5,,295
2013-4-30,79,64,49,58,53,48,100,70,40,30.07,30.01,29.95,10,7,1,9,1,13,0.00,3,,288